Temp
9 9 9 10 10 10 10 11 11 11 11 11 11 11 11 11 11 11 11 11 11 11 11 11 11 11 11 11 11 11 13 15 15 15 15 14 13 13 13 12 12 13 12 12 12
9 9 9 9 10 10 10 10 11 11 11 11 11 11 11 11 11 11 11 11 11 11 11 11 11 11 10 11 11 12 13 15 14 14 14 12 13 14 12 10 10 13 12 12 12
9 9 9 9 10 10 10 10 11 11 11 11 11 11 11 11 11 11 11 11 11 11 11 11 11 11 11 11 11 12 13 14 13 13 11 12 14 13 12 13 11 11 12 12 12
9 9 9 10 10 10 10 10 10 11 11 11 11 11 11 11 10 11 11 11 11 11 11 11 11 11 11 11 11 12 12 13 13 12 12 13 13 14 14 13 12 12 12 12 13
9 9 10 10 10 10 10 10 10 10 11 11 11 11 11 11 10 11 11 11 11 11 11 11 11 10 11 11 11 11 12 12 11 11 12 12 13 14 14 13 13 11 12 12 13
9 10 10 10 10 10 10 10 10 10 10 10 11 11 11 10 10 10 10 10 11 11 11 11 9 10 11 11 11 11 11 10 10 10 12 12 12 13 13 13 12 11 11 12 12
9 9 10 10 10 10 10 10 10 10 10 10 10 10 10 10 10 10 10 10 10 11 11 11 10 10 10 10 10 11 10 11 11 10 11 12 11 11 12 12 12 11 10 11 12
9 9 9 10 10 10 10 10 10 10 10 10 10 10 10 10 10 10 10 10 10 11 11 11 10 9 10 10 10 11 12 12 10 10 11 11 7 10 11 12 12 11 11 11 12
9 9 9 9 10 10 10 10 10 10 10 10 10 10 10 10 10 9 9 9 10 10 10 10 10 10 10 11 12 12 13 13 10 11 10 9 8 10 10 10 11 11 11 12 11
9 9 9 9 9 10 10 10 10 10 10 10 10 10 10 9 10 9 9 9 8 9 9 9 9 10 11 12 14 13 13 10 10 8 10 10 11 9 8 8 9 10 11 11 12
9 9 9 9 9 9 9 9 9 9 10 10 10 10 10 10 9 9 9 9 8 8 9 9 10 11 12 12 13 12 13 10 8 9 8 8 9 8 8 7 8 8 9 10 10
9 9 9 9 9 9 9 9 9 9 9 9 10 10 10 9 9 9 9 8 8 9 9 9 10 12 11 11 10 11 10 8 6 8 7 5 7 7 6 6 6 7 8 8 8
9 9 9 9 9 9 8 8 8 8 9 10 10 10 9 9 9 9 9 8 9 10 10 11 12 10 10 10 10 11 11 8 9 5 5 4 3 4 4 5 5 6 6 7 7
9 9 9 8 8 8 8 8 8 8 8 9 9 9 9 9 9 9 9 9 9 10 10 10 11 10 10 10 10 11 11 9 9 8 9 8 11 3 2 5 5 6 6 6 6
9 9 8 8 8 8 7 7 7 8 12 9 9 9 9 9 9 9 9 9 10 10 9 11 10 10 11 11 11 12 11 9 10 10 10 6 9 6 2 2 5 5 5 6 6
8 8 8 8 8 7 7 7 7 8 11 9 8 8 8 9 9 9 9 9 9 9 9 10 10 10 11 10 10 10 10 9 8 10 11 11 9 6 3 3 5 5 5 5 5
8 8 8 7 7 7 7 7 8 10 9 9 9 9 9 9 9 9 9 9 10 9 10 10 10 10 10 10 9 9 9 10 11 12 13 9 8 6 4 5 5 4 5 5 5
8 8 8 7 7 7 6 6 8 8 8 8 8 8 9 9 9 9 9 10 9 9 11 11 11 10 10 10 10 10 10 14 13 14 15 7 10 4 5 5 4 4 4 3 4
8 7 7 7 7 6 6 7 8 7 6 7 8 9 9 9 9 9 9 10 10 9 10 11 11 9 9 10 10 11 10 11 12 13 14 10 4 2 4 4 3 3 2 2 3
7 7 7 7 7 6 6 7 6 6 7 7 8 8 10 10 9 9 10 9 9 9 9 9 10 9 9 9 9 9 10 11 11 13 13 12 9 7 3 0 2 2 2 2 2
7 7 7 6 6 5 6 7 5 6 6 6 6 7 7 8 8 10 10 9 9 9 9 8 9 8 9 8 9 9 10 9 10 10 14 14 8 1 -1 -2 -0 1 1 1 2
7 5 6 6 5 5 6 5 6 6 6 6 6 6 6 7 7 7 8 8 8 8 7 7 7 9 9 9 9 9 8 8 10 12 11 10 5 3 1 1 0 -0 0 1 1
7 6 6 6 6 5 5 5 5 5 5 5 5 5 6 6 6 7 7 7 7 7 6 7 7 8 7 6 7 6 8 8 8 8 9 10 5 2 1 1 0 0 0 0 0
6 4 5 5 5 5 4 4 4 5 5 5 5 5 5 4 5 5 6 6 6 6 6 6 6 6 9 6 6 5 7 7 6 8 10 8 3 -1 -0 -1 -0 -0 -0 -0 -0
5 5 5 4 4 4 4 4 3 4 4 4 3 4 4 3 3 4 4 4 5 5 5 4 4 3 4 5 5 4 4 5 4 5 6 5 2 -2 -3 -1 -1 -1 -1 -1 -1
5 4 4 4 4 4 4 3 3 3 3 2 2 2 3 2 3 2 2 2 2 3 3 3 1 1 1 2 1 3 3 2 1 2 2 1 -2 -2 0 -1 -1 -2 -2 -2 -2
5 4 3 3 2 2 2 1 1 1 1 1 1 1 1 1 2 2 2 2 2 1 1 2 1 1 2 -1 -0 0 -2 -1 0 0 -0 1 -2 -0 -1 -1 -2 -2 -2 -2 -2
Height
3149 3149 3149 3149 3149 3149 3150 3151 3152 3152 3153 3154 3155 3155 3157 3158 3159 3160 3162 3164 3165 3166 3167 3169 3172 3175 3178 3182 3184 3188 3193 3193 3194 3195 3195 3192 3189 3192 3193 3195 3190 3190 3193 3193 3193
3148 3148 3148 3148 3148 3148 3149 3150 3150 3151 3151 3152 3153 3153 3155 3156 3157 3158 3160 3160 3162 3164 3165 3168 3171 3174 3177 3180 3183 3186 3191 3192 3193 3194 3193 3187 3186 3189 3192 3191 3193 3191 3192 3193 3194
3147 3146 3146 3147 3147 3147 3147 3148 3148 3149 3149 3150 3151 3152 3153 3155 3156 3156 3157 3158 3160 3162 3164 3166 3169 3173 3177 3179 3182 3185 3188 3191 3192 3191 3187 3188 3183 3186 3188 3187 3189 3191 3192 3193 3194
3145 3145 3145 3146 3146 3146 3146 3146 3147 3147 3147 3148 3149 3150 3151 3153 3159 3154 3155 3157 3158 3160 3163 3165 3168 3171 3175 3177 3180 3183 3186 3190 3192 3185 3183 3185 3183 3183 3185 3187 3188 3189 3191 3192 3193
3144 3144 3144 3145 3145 3145 3145 3145 3145 3145 3146 3146 3147 3149 3150 3152 3153 3153 3153 3155 3157 3159 3161 3164 3167 3171 3174 3176 3177 3180 3184 3186 3183 3181 3182 3183 3183 3183 3184 3186 3187 3188 3189 3190 3192
3142 3142 3142 3143 3143 3143 3143 3143 3143 3144 3144 3145 3146 3147 3149 3151 3151 3152 3153 3154 3155 3157 3159 3162 3165 3168 3173 3173 3176 3179 3180 3179 3182 3179 3181 3181 3181 3182 3183 3183 3184 3187 3189 3190 3191
3140 3140 3140 3140 3141 3141 3142 3142 3142 3142 3143 3144 3145 3146 3147 3149 3149 3151 3152 3153 3154 3155 3157 3159 3162 3166 3169 3172 3173 3177 3177 3177 3178 3179 3178 3179 3180 3179 3180 3182 3183 3184 3186 3189 3190
3138 3138 3138 3138 3139 3139 3140 3140 3141 3141 3142 3143 3144 3145 3145 3146 3148 3149 3151 3152 3153 3154 3156 3158 3160 3164 3168 3169 3172 3175 3177 3178 3175 3177 3177 3180 3179 3177 3177 3179 3180 3182 3183 3185 3187
3137 3137 3136 3137 3136 3137 3137 3138 3139 3140 3141 3142 3143 3144 3145 3145 3146 3148 3150 3151 3152 3153 3155 3157 3160 3164 3166 3169 3172 3172 3171 3173 3173 3174 3175 3178 3175 3175 3175 3176 3177 3178 3180 3181 3182
3135 3135 3135 3135 3135 3135 3135 3137 3138 3139 3140 3140 3141 3145 3144 3144 3145 3147 3148 3150 3152 3153 3156 3158 3161 3163 3165 3165 3164 3166 3168 3169 3172 3172 3171 3171 3173 3172 3173 3174 3176 3177 3177 3178 3179
3134 3134 3133 3133 3133 3133 3134 3135 3139 3139 3138 3139 3139 3140 3140 3142 3145 3146 3148 3150 3152 3155 3157 3158 3161 3159 3161 3162 3163 3163 3165 3168 3167 3168 3170 3169 3170 3170 3172 3173 3173 3174 3175 3176 3176
3132 3132 3131 3132 3131 3132 3133 3134 3135 3137 3136 3136 3137 3138 3139 3140 3143 3145 3147 3150 3151 3154 3156 3157 3156 3158 3158 3159 3160 3163 3165 3166 3166 3165 3168 3168 3168 3169 3169 3171 3172 3173 3173 3174 3174
3131 3130 3130 3130 3130 3131 3132 3133 3133 3133 3134 3134 3134 3136 3138 3141 3144 3144 3146 3148 3150 3152 3152 3153 3154 3154 3155 3156 3158 3159 3161 3160 3162 3163 3167 3167 3170 3169 3169 3170 3170 3171 3172 3172 3172
3130 3129 3128 3129 3131 3130 3131 3132 3132 3131 3133 3133 3132 3134 3137 3140 3143 3143 3144 3148 3149 3150 3151 3151 3152 3152 3153 3154 3156 3156 3159 3160 3157 3159 3162 3162 3162 3168 3167 3167 3167 3168 3169 3170 3170
3128 3128 3127 3127 3128 3129 3131 3131 3130 3131 3129 3132 3131 3131 3134 3140 3140 3141 3142 3145 3147 3147 3149 3147 3148 3150 3151 3151 3152 3153 3154 3155 3156 3159 3159 3162 3163 3161 3164 3166 3164 3164 3165 3165 3166
3126 3126 3126 3126 3126 3128 3129 3130 3131 3134 3128 3131 3130 3130 3134 3137 3138 3138 3141 3142 3144 3146 3145 3145 3146 3147 3149 3146 3148 3149 3152 3157 3158 3158 3155 3152 3158 3156 3159 3162 3159 3160 3161 3162 3162
3124 3124 3124 3124 3126 3126 3128 3130 3134 3129 3130 3131 3130 3130 3133 3135 3136 3137 3139 3140 3142 3143 3142 3142 3143 3144 3144 3145 3145 3147 3148 3151 3153 3149 3147 3148 3155 3155 3150 3151 3152 3154 3156 3157 3158
3122 3122 3122 3123 3124 3125 3128 3132 3132 3129 3129 3128 3128 3129 3130 3132 3134 3134 3136 3138 3138 3139 3138 3137 3138 3139 3138 3141 3142 3142 3141 3132 3135 3131 3135 3145 3144 3147 3145 3146 3148 3150 3151 3152 3153
3120 3120 3120 3122 3123 3125 3128 3131 3129 3129 3127 3126 3127 3127 3128 3129 3131 3132 3133 3134 3135 3136 3138 3135 3134 3134 3135 3135 3139 3138 3138 3138 3133 3130 3127 3132 3140 3141 3141 3142 3144 3145 3147 3148 3149
3118 3118 3119 3120 3122 3124 3128 3128 3128 3126 3126 3127 3127 3126 3125 3126 3128 3128 3129 3129 3130 3131 3133 3134 3133 3133 3132 3133 3133 3134 3135 3135 3132 3127 3121 3122 3130 3134 3134 3136 3138 3142 3143 3144 3144
3117 3118 3118 3119 3121 3124 3126 3127 3125 3124 3125 3126 3126 3126 3125 3125 3124 3124 3125 3125 3125 3126 3128 3130 3132 3131 3131 3130 3130 3131 3131 3130 3128 3125 3116 3115 3127 3131 3133 3134 3134 3136 3138 3139 3139
3116 3119 3117 3118 3123 3122 3124 3123 3122 3122 3123 3123 3123 3123 3123 3122 3122 3123 3122 3120 3120 3122 3124 3125 3126 3127 3126 3125 3126 3126 3126 3126 3125 3121 3122 3123 3127 3127 3128 3129 3131 3133 3135 3135 3134
3115 3116 3116 3117 3122 3122 3120 3120 3120 3120 3120 3120 3120 3120 3120 3120 3121 3118 3117 3118 3118 3118 3118 3119 3121 3122 3123 3124 3120 3121 3120 3121 3122 3122 3121 3119 3124 3124 3124 3126 3128 3130 3129 3129 3129
3114 3117 3116 3116 3117 3119 3119 3119 3119 3118 3117 3117 3117 3116 3116 3116 3116 3116 3114 3114 3114 3113 3114 3115 3115 3115 3114 3113 3115 3115 3116 3117 3119 3121 3117 3118 3119 3120 3122 3124 3126 3127 3127 3127 3126
3113 3114 3114 3117 3115 3115 3116 3116 3116 3114 3114 3114 3114 3113 3113 3114 3112 3112 3111 3109 3109 3108 3109 3111 3111 3110 3109 3109 3111 3111 3112 3113 3116 3117 3118 3117 3119 3120 3121 3123 3124 3124 3125 3124 3122
3113 3114 3113 3113 3113 3113 3113 3112 3112 3112 3112 3111 3111 3110 3110 3110 3109 3108 3107 3107 3107 3104 3104 3105 3106 3106 3106 3106 3107 3108 3109 3110 3112 3113 3114 3117 3118 3118 3120 3121 3122 3122 3122 3121 3119
3111 3112 3113 3112 3112 3112 3111 3110 3110 3110 3109 3108 3108 3107 3106 3106 3105 3104 3103 3103 3102 3103 3101 3102 3102 3104 3106 3106 3108 3110 3109 3109 3110 3113 3115 3118 3117 3117 3119 3120 3120 3119 3119 3117 3116
Wind_Speed
4 4 5 6 8 9 10 11 13 13 13 13 13 12 12 12 12 11 10 11 12 10 11 12 15 17 18 18 20 14 11 11 7 3 4 8 7 7 10 9 7 4 4 10 9
3 3 4 5 6 8 8 9 11 11 12 12 11 11 11 10 11 11 11 10 10 10 10 10 13 15 15 16 17 17 15 13 10 4 2 8 3 8 10 12 13 8 6 10 8
4 4 4 5 5 6 7 7 8 9 9 9 9 10 10 9 9 11 10 11 11 11 12 13 13 14 15 15 17 18 17 12 9 5 2 5 5 5 10 6 10 9 12 6 4
4 5 5 5 5 6 6 6 7 7 7 8 8 8 8 8 3 9 10 10 11 12 13 13 13 13 13 15 16 16 19 15 9 15 13 8 8 8 5 6 3 2 2 5 2
5 5 6 6 6 6 5 6 6 6 6 7 7 7 8 9 11 6 7 8 9 12 14 14 14 13 13 14 13 15 12 16 13 20 18 13 9 10 6 6 5 2 1 2 5
5 6 6 7 7 7 6 6 6 6 6 6 7 7 8 9 10 8 6 5 8 12 14 16 13 13 12 12 12 13 13 14 12 16 19 16 11 10 5 9 8 6 5 8 6
5 6 6 7 7 7 7 6 6 6 7 7 7 7 9 12 11 11 10 4 5 11 15 18 18 15 10 12 11 16 15 15 18 16 14 15 9 12 10 12 13 11 10 9 10
5 5 5 6 7 7 7 7 7 7 7 7 7 7 10 10 10 13 12 8 7 11 15 18 20 14 13 14 13 13 16 17 18 16 19 12 6 10 14 15 16 14 12 11 12
5 4 4 5 5 7 8 8 7 7 6 5 6 7 8 9 13 14 12 10 11 14 15 17 19 13 15 13 14 16 17 21 13 17 18 13 13 12 13 15 15 15 14 13 14
5 4 4 4 4 6 7 7 7 7 8 7 7 6 8 11 15 16 14 14 15 16 15 14 12 12 14 18 20 17 14 11 8 3 17 19 20 16 15 15 14 15 17 17 18
5 4 3 4 4 5 5 6 5 7 8 9 7 13 10 12 15 15 15 16 16 12 11 12 13 17 16 16 15 12 14 14 17 16 10 14 17 16 16 16 16 16 17 18 20
5 4 4 4 4 4 3 4 5 6 7 9 10 12 11 14 16 17 17 17 16 14 14 10 15 14 15 16 15 14 16 16 11 15 13 15 14 16 16 15 14 14 15 17 17
5 4 4 4 5 2 2 2 3 4 5 8 10 12 14 15 11 13 14 16 16 16 14 15 8 13 12 13 15 18 21 21 15 13 13 16 9 10 14 14 14 14 15 15 16
6 4 4 5 5 3 2 1 2 3 1 5 8 11 15 15 11 13 12 14 15 16 13 15 13 11 10 13 14 19 20 18 19 19 12 22 9 14 13 15 15 15 16 15 15
6 5 5 6 5 5 3 1 2 1 4 3 8 15 19 14 7 15 14 15 13 13 13 11 16 16 13 13 17 17 18 25 20 17 8 23 9 14 16 11 17 17 16 15 14
7 6 6 6 6 5 3 2 1 1 3 3 6 13 17 14 9 13 14 13 12 13 13 10 12 14 14 10 11 14 18 16 15 17 15 20 21 14 17 19 22 21 19 17 16
7 6 7 8 7 6 5 2 3 6 2 3 6 9 15 14 11 9 15 17 12 14 16 13 15 14 15 7 8 15 26 12 11 13 12 13 14 5 25 27 26 23 21 19 19
7 6 8 8 7 6 6 2 6 2 1 2 4 8 17 12 15 13 15 16 17 11 5 12 12 15 18 15 13 19 27 21 14 14 16 12 11 7 22 21 24 22 21 20 19
7 6 8 6 7 7 6 8 3 2 3 5 4 9 14 14 11 16 17 16 14 16 9 7 8 11 18 20 19 18 24 23 22 13 12 14 7 12 16 20 22 21 17 15 15
5 5 7 7 8 8 6 10 5 6 7 5 4 3 11 15 15 16 15 16 22 19 15 8 8 9 12 14 16 17 11 14 20 19 21 15 11 5 20 18 20 17 14 13 12
4 4 6 8 8 8 9 9 7 13 11 7 5 4 3 6 12 16 15 16 16 17 18 14 11 6 12 12 10 11 16 14 17 11 12 16 7 8 14 15 14 14 11 11 12
3 2 5 7 7 9 8 9 11 10 9 8 8 12 10 8 5 6 10 18 15 16 9 15 9 14 8 17 19 22 15 14 17 19 19 16 1 9 12 12 12 11 10 10 10
4 5 5 7 5 6 7 7 7 8 9 8 8 9 11 11 7 11 15 16 15 14 10 14 10 15 8 13 20 14 20 20 18 17 24 14 3 11 12 12 10 9 7 9 12
4 1 7 9 10 7 5 6 7 11 12 12 13 13 13 12 13 9 12 14 16 17 17 16 18 13 19 4 6 10 20 20 14 14 19 12 8 11 11 10 8 7 7 9 11
5 7 6 4 11 12 11 12 7 9 11 11 7 11 11 8 9 11 14 18 18 19 18 16 11 13 18 17 11 10 10 13 10 10 10 6 8 12 11 9 8 7 7 9 10
6 7 6 8 7 7 8 8 9 8 8 9 9 10 10 9 11 12 10 11 9 14 17 17 8 9 4 8 7 9 8 8 7 5 5 11 13 13 11 9 7 7 8 9 11
3 5 6 5 4 2 5 5 5 6 9 9 9 9 9 10 11 14 15 15 15 8 11 13 12 10 6 9 9 5 5 7 8 7 9 7 7 10 8 8 7 7 8 10 11
Wind_Direction
266 259 260 256 257 256 248 243 244 242 240 239 241 242 242 242 243 243 235 227 229 223 223 222 220 217 214 214 218 216 218 213 185 167 65 5 88 52 70 78 23 63 42 19 50
280 278 272 268 261 258 251 244 240 239 239 241 240 242 242 239 238 236 234 229 226 213 212 209 215 208 206 208 213 207 212 206 194 167 354 336 131 118 146 74 70 24 15 18 76
284 285 278 268 259 255 253 247 241 239 239 238 236 238 236 233 237 240 233 227 218 208 204 200 206 197 205 206 209 210 209 205 200 240 356 90 253 144 154 121 84 54 38 35 113
279 276 271 264 258 255 251 247 241 235 234 234 231 232 226 218 170 229 226 220 213 205 203 197 198 197 202 208 210 205 212 209 211 239 246 246 256 229 222 165 97 25 21 56 62
278 270 265 261 255 252 249 246 240 234 229 227 226 222 215 208 214 206 210 210 205 200 197 194 195 197 202 202 205 203 219 212 218 235 241 261 243 238 233 235 241 302 145 151 214
278 269 262 259 257 253 247 242 240 234 229 224 220 214 206 201 211 197 190 180 195 193 195 193 193 196 202 199 183 201 194 194 185 218 237 252 244 208 199 236 246 259 234 230 216
285 273 267 262 255 251 249 246 240 236 232 227 221 213 206 208 205 194 192 195 189 187 192 194 188 178 191 183 192 173 181 209 196 209 229 232 220 191 197 212 237 248 252 248 232
306 285 272 268 261 251 242 241 238 236 235 230 221 212 214 209 197 199 208 208 192 195 195 193 189 183 167 190 171 178 194 198 213 208 227 218 220 209 196 205 222 241 256 254 249
317 300 284 280 271 253 235 233 235 237 241 237 220 210 214 204 190 190 185 179 188 189 195 194 192 187 194 185 193 199 204 207 207 221 222 199 214 219 206 210 220 230 243 246 253
320 309 289 285 280 265 241 229 228 229 226 223 211 189 215 196 193 182 184 179 180 186 193 193 194 201 201 204 211 204 205 196 202 211 216 217 216 211 205 207 217 228 236 241 247
324 308 276 277 287 277 253 227 227 241 227 216 207 202 206 198 191 188 187 188 190 191 196 201 202 211 216 218 232 220 215 193 205 203 189 199 202 207 210 209 214 225 234 241 244
320 306 279 274 274 287 263 221 222 249 248 233 222 207 205 191 182 194 197 194 200 203 202 208 221 221 220 218 217 214 193 166 164 196 193 178 187 201 207 213 220 228 237 242 244
310 293 271 260 273 276 258 227 241 262 263 247 222 208 198 189 180 201 206 200 206 206 217 220 233 210 202 212 209 211 202 197 205 175 160 161 154 192 206 214 219 226 238 245 249
301 284 264 250 254 269 262 316 317 311 272 253 211 205 191 179 199 195 188 193 202 214 221 226 222 197 206 217 208 214 210 196 198 182 191 192 171 195 193 208 214 220 226 230 239
298 284 261 250 242 235 236 335 356 98 244 217 193 194 180 177 210 200 188 192 205 212 205 229 211 206 219 233 228 231 220 204 216 207 204 196 246 176 195 200 214 218 222 227 230
297 276 255 245 234 233 229 242 348 239 198 176 182 184 183 194 199 207 199 193 203 211 217 226 207 212 224 240 225 216 179 187 207 217 237 210 216 179 192 206 215 218 222 227 233
297 269 249 243 229 222 210 205 277 243 190 163 183 193 194 201 204 198 203 200 198 202 220 227 232 229 231 228 176 170 169 171 205 213 239 174 204 133 212 217 216 218 224 231 238
290 260 244 239 231 217 198 197 245 267 219 267 228 213 203 203 210 210 199 206 212 216 232 227 200 216 227 217 215 209 205 233 214 220 214 179 219 200 226 221 220 227 233 238 246
283 257 244 239 223 211 189 227 265 267 306 319 287 216 209 216 213 212 213 219 213 219 239 216 229 230 226 229 221 220 223 243 275 266 280 158 203 220 229 218 219 225 235 246 258
281 251 239 227 217 204 216 233 247 253 283 318 289 263 232 218 216 216 214 222 233 233 236 238 254 231 240 237 240 219 226 239 235 256 250 206 199 194 208 211 223 231 246 260 274
268 235 233 223 214 206 229 241 252 269 282 272 274 289 271 236 235 233 235 236 230 233 231 224 228 231 228 234 242 238 239 245 256 275 274 264 126 172 183 198 214 232 242 259 277
249 214 228 208 195 219 237 244 263 274 278 276 265 259 268 271 270 245 235 233 246 241 227 227 221 246 234 234 241 250 246 242 256 238 246 273 98 193 200 205 214 230 248 262 281
221 223 217 196 205 227 241 255 258 268 270 259 254 255 264 273 270 256 256 255 252 249 232 237 227 225 236 254 236 230 241 241 248 259 265 276 202 214 219 217 225 242 273 297 301
192 208 220 222 225 214 236 256 267 271 273 271 269 272 275 274 264 259 263 259 264 265 260 246 234 231 267 297 175 216 236 240 236 256 259 250 210 211 209 208 218 244 267 282 295
205 223 214 203 244 249 251 256 261 265 269 270 278 267 275 284 283 273 266 270 265 261 255 235 233 229 237 248 232 221 223 225 222 239 254 248 179 183 187 199 222 244 270 291 301
228 229 238 249 252 255 249 258 258 264 265 269 264 276 278 272 270 265 275 271 257 266 254 240 239 184 204 209 191 205 202 190 178 187 190 143 148 187 205 218 228 252 273 293 302
309 249 234 245 248 228 240 266 294 300 297 292 294 298 283 279 278 275 273 267 257 250 248 243 228 201 211 158 145 139 139 173 182 146 151 151 202 206 216 228 244 270 292 298 300